User: anonymous   Login
Location: Great Northern Moose Lodge
(44.6765°N, 71.1811°W)
Time: 08:31:15
(UTC-04:00)
Language:

Terra - Orbit

View from above orbital plane
View from above orbital plane
View from above satellite
View from above satellite

Ground track
Ground track

The orbit data is extracted from the following two-line orbital elements,

1 25994U 99068A   16151.16676008  .00000088  00000-0  29535-4 0  9993
2 25994  98.2099 225.7188 0001267  98.4424 261.6950 14.57102670874896
Epoch (UTC): 30 May 2016 04:00:08
Eccentricity: 0.0001267
inclination: 98.2099°
perigee height: 701 km
apogee height: 703 km
right ascension of ascending node: 225.7188°
argument of perigee: 98.4424°
revolutions per day: 14.57102670
mean anomaly at epoch: 261.6950°
orbit number at epoch: 87489

The dashed part of the orbit path shows where the satellite is in the earth's shadow,  

DLR